Location: Baix
(44.7118°N, 4.7648°E)
Time: 02:53:17
(UTC+00:00)

Cosmos 2227 - Pass Details

Date: 07 August 2020
Orbit: 835 x 861 km, 71.0° (Epoch: 25 September)

Event Time Altitude Azimuth Distance (km) Brightness Sun altitude
Exits shadow 03:25:06 13° 211° (SSW) 2,307 5.9 -11.4°
Maximum altitude 03:30:21 76° 296° (WNW) 889 4.3 -10.7°
Drops below altitude 10° 03:36:08 10° 23° (NNE) 2,507 7.6 -9.8°
Sets 03:38:36 0° 25° (NNE) 3,447 8.5 -9.5°
